TimeHST,TemperatureF,Dew PointF,Humidity,Sea Level PressureIn,VisibilityMPH,Wind Direction,Wind SpeedMPH,Gust SpeedMPH,PrecipitationIn,Events,Conditions,WindDirDegrees,DateUTC
12:03 AM,68.0,68.0,100,29.99,10.0,East,4.6,-,N/A,,Overcast,90,2013-05-06 10:03:00
12:29 AM,68.0,68.0,100,29.99,2.0,East,5.8,-,N/A,,Overcast,100,2013-05-06 10:29:00
12:41 AM,68.0,68.0,100,29.98,4.0,East,6.9,-,N/A,,Overcast,100,2013-05-06 10:41:00
12:56 AM,66.9,66.9,100,29.92,9.0,East,5.8,-,N/A,,Overcast,100,2013-05-06 10:56:00
1:19 AM,66.2,66.2,100,29.97,10.0,ESE,6.9,-,N/A,,Overcast,110,2013-05-06 11:19:00
1:42 AM,68.0,68.0,100,29.97,10.0,South,6.9,-,N/A,,Overcast,190,2013-05-06 11:42:00
1:56 AM,69.8,69.8,100,29.96,4.0,South,8.1,-,N/A,,Overcast,190,2013-05-06 11:56:00
2:22 AM,69.8,69.8,100,29.95,1.8,SSW,9.2,-,0.02,,Overcast,210,2013-05-06 12:22:00
2:39 AM,69.8,69.8,100,29.95,1.2,West,6.9,-,0.05,,Overcast,280,2013-05-06 12:39:00
2:41 AM,69.8,69.8,100,29.95,0.5,WNW,6.9,-,0.06,Fog,Fog,290,2013-05-06 12:41:00
2:49 AM,68.0,68.0,100,29.94,0.2,SW,10.4,-,0.24,Fog,Fog,230,2013-05-06 12:49:00
2:56 AM,68.0,68.0,100,29.89,0.5,WSW,8.1,-,0.33,Fog,Fog,250,2013-05-06 12:56:00
3:09 AM,68.0,68.0,100,29.94,0.2,WSW,15.0,-,0.07,Fog,Fog,250,2013-05-06 13:09:00
3:19 AM,66.2,66.2,100,29.94,0.8,WSW,11.5,-,0.07,,Overcast,250,2013-05-06 13:19:00
3:23 AM,66.2,66.2,100,29.94,1.2,WSW,8.1,-,0.07,,Overcast,250,2013-05-06 13:23:00
3:27 AM,66.2,66.2,100,29.94,2.0,WSW,6.9,-,0.07,,Overcast,250,2013-05-06 13:27:00
3:33 AM,66.2,66.2,100,29.94,3.0,West,8.1,-,0.08,,Overcast,260,2013-05-06 13:33:00
3:36 AM,66.2,66.2,100,29.94,2.5,West,6.9,-,0.08,,Overcast,260,2013-05-06 13:36:00
3:43 AM,66.2,66.2,100,29.94,2.0,West,4.6,-,0.08,,Overcast,260,2013-05-06 13:43:00
3:56 AM,66.9,66.9,100,29.90,8.0,West,3.5,-,0.08,,Overcast,270,2013-05-06 13:56:00
4:27 AM,66.2,66.2,100,29.94,3.0,West,4.6,-,0.02,,Mostly Cloudy,260,2013-05-06 14:27:00
4:30 AM,66.2,66.2,100,29.94,2.0,West,4.6,-,0.02,,Overcast,280,2013-05-06 14:30:00
4:36 AM,66.2,66.2,100,29.95,1.2,West,4.6,-,0.04,,Overcast,270,2013-05-06 14:36:00
4:46 AM,66.2,66.2,100,29.94,1.0,SW,8.1,-,0.10,,Overcast,220,2013-05-06 14:46:00
4:56 AM,66.2,66.2,100,29.95,0.2,WNW,4.6,-,N/A,Fog,Fog,290,2013-05-06 14:56:00
5:05 AM,66.2,66.2,100,29.95,0.2,West,8.1,-,0.01,Fog,Fog,270,2013-05-06 15:05:00
5:56 AM,68.0,68.0,100,29.91,0.2,WNW,5.8,-,0.01,Fog,Fog,290,2013-05-06 15:56:00
6:03 AM,68.0,68.0,100,29.96,0.2,WNW,6.9,-,N/A,Fog,Fog,290,2013-05-06 16:03:00
6:16 AM,68.0,68.0,100,29.97,0.8,NW,3.5,-,N/A,,Overcast,310,2013-05-06 16:16:00
6:21 AM,68.0,68.0,100,29.97,1.2,Variable,3.5,-,N/A,,Overcast,0,2013-05-06 16:21:00
6:23 AM,68.0,68.0,100,29.97,3.0,Variable,4.6,-,N/A,,Overcast,0,2013-05-06 16:23:00
6:41 AM,68.0,68.0,100,29.97,1.8,West,4.6,-,0.01,,Overcast,280,2013-05-06 16:41:00
6:44 AM,68.0,68.0,100,29.97,1.0,WNW,3.5,-,0.01,,Overcast,290,2013-05-06 16:44:00
6:56 AM,68.0,68.0,100,29.93,0.8,WSW,4.6,-,0.01,,Overcast,250,2013-05-06 16:56:00
7:05 AM,68.0,68.0,100,29.98,0.5,WSW,4.6,-,0.03,Fog,Fog,250,2013-05-06 17:05:00
7:12 AM,68.0,68.0,100,29.98,0.2,West,3.5,-,0.04,Fog,Fog,280,2013-05-06 17:12:00
7:23 AM,68.0,68.0,100,29.98,0.8,Calm,Calm,-,0.04,,Overcast,0,2013-05-06 17:23:00
7:25 AM,68.0,68.0,100,29.98,1.8,WNW,3.5,-,0.04,,Overcast,290,2013-05-06 17:25:00
7:32 AM,68.0,68.0,100,29.98,2.5,West,4.6,-,0.04,,Overcast,280,2013-05-06 17:32:00
7:39 AM,68.0,68.0,100,29.98,6.0,WNW,3.5,-,0.04,,Overcast,300,2013-05-06 17:39:00
7:56 AM,69.8,69.8,100,29.99,1.2,NNW,4.6,-,N/A,,Overcast,340,2013-05-06 17:56:00
8:03 AM,69.8,69.8,100,29.99,2.0,NNW,4.6,-,0.01,,Overcast,330,2013-05-06 18:03:00
8:10 AM,69.8,69.8,100,29.99,10.0,NW,4.6,-,0.01,,Overcast,310,2013-05-06 18:10:00
8:19 AM,69.8,69.8,100,30.00,2.5,NW,6.9,-,0.01,,Overcast,320,2013-05-06 18:19:00
8:27 AM,68.0,68.0,100,30.00,1.5,North,4.6,-,0.01,,Overcast,360,2013-05-06 18:27:00
8:35 AM,68.0,68.0,100,30.00,2.0,North,4.6,-,0.02,,Mostly Cloudy,350,2013-05-06 18:35:00
8:43 AM,69.8,69.8,100,30.00,10.0,NW,5.8,-,0.02,,Mostly Cloudy,320,2013-05-06 18:43:00
8:56 AM,70.0,70.0,100,29.96,0.8,WNW,5.8,-,0.02,,Overcast,300,2013-05-06 18:56:00
9:00 AM,69.8,69.8,100,30.01,0.5,NW,5.8,-,N/A,Fog,Fog,320,2013-05-06 19:00:00
9:05 AM,69.8,69.8,100,30.01,1.0,NW,5.8,-,N/A,,Overcast,310,2013-05-06 19:05:00
9:07 AM,69.8,69.8,100,30.01,2.0,NW,5.8,-,N/A,,Overcast,320,2013-05-06 19:07:00
9:15 AM,71.6,71.6,100,30.01,10.0,NW,8.1,-,N/A,,Overcast,320,2013-05-06 19:15:00
9:29 AM,71.6,71.6,100,30.01,10.0,WNW,9.2,-,N/A,,Overcast,300,2013-05-06 19:29:00
9:42 AM,73.4,71.6,94,30.01,10.0,WNW,8.1,-,N/A,,Mostly Cloudy,300,2013-05-06 19:42:00
9:56 AM,72.9,70.9,93,29.96,10.0,NW,9.2,-,N/A,,Mostly Cloudy,310,2013-05-06 19:56:00
10:27 AM,73.4,69.8,88,30.01,10.0,NW,9.2,-,N/A,,Overcast,320,2013-05-06 20:27:00
10:56 AM,75.2,69.8,83,30.00,10.0,NW,5.8,-,N/A,,Mostly Cloudy,310,2013-05-06 20:56:00
11:17 AM,75.2,68.0,78,30.00,10.0,NW,5.8,-,N/A,,Mostly Cloudy,320,2013-05-06 21:17:00
11:45 AM,78.8,66.2,65,29.99,10.0,Variable,4.6,-,N/A,,Mostly Cloudy,0,2013-05-06 21:45:00
11:56 AM,75.9,68.9,79,29.93,10.0,SSE,8.1,-,N/A,,Mostly Cloudy,160,2013-05-06 21:56:00
12:26 PM,73.4,69.8,88,29.98,10.0,SE,9.2,-,N/A,,Overcast,140,2013-05-06 22:26:00
12:48 PM,73.4,69.8,88,29.98,10.0,South,6.9,-,N/A,,Overcast,180,2013-05-06 22:48:00
12:56 PM,73.9,68.9,84,29.92,10.0,SSE,8.1,-,N/A,,Overcast,150,2013-05-06 22:56:00
1:10 PM,73.4,68.0,83,29.97,10.0,Variable,4.6,-,N/A,,Overcast,0,2013-05-06 23:10:00
1:56 PM,73.4,68.0,83,29.97,10.0,South,6.9,-,N/A,,Overcast,190,2013-05-06 23:56:00
2:06 PM,75.2,66.2,73,29.96,10.0,SSW,6.9,-,N/A,,Mostly Cloudy,200,2013-05-07 00:06:00
2:34 PM,73.4,66.2,78,29.95,10.0,SSE,6.9,-,N/A,,Mostly Cloudy,160,2013-05-07 00:34:00
2:42 PM,75.2,68.0,78,29.95,10.0,SSE,8.1,-,N/A,,Mostly Cloudy,160,2013-05-07 00:42:00
2:56 PM,75.9,68.0,76,29.89,10.0,SE,9.2,-,N/A,,Mostly Cloudy,130,2013-05-07 00:56:00
3:29 PM,75.2,68.0,78,29.94,10.0,South,9.2,-,N/A,,Mostly Cloudy,170,2013-05-07 01:29:00
3:56 PM,73.9,66.9,79,29.89,10.0,South,8.1,-,N/A,,Mostly Cloudy,190,2013-05-07 01:56:00
4:56 PM,73.4,66.2,78,29.94,10.0,Variable,5.8,-,N/A,,Overcast,0,2013-05-07 02:56:00
5:56 PM,72.9,66.9,82,29.91,10.0,Calm,Calm,-,N/A,,Overcast,0,2013-05-07 03:56:00
6:38 PM,73.4,66.2,78,29.98,10.0,WNW,4.6,-,N/A,,Scattered Clouds,290,2013-05-07 04:38:00
6:56 PM,70.9,66.9,87,29.94,10.0,WNW,4.6,-,N/A,,Clear,290,2013-05-07 04:56:00
7:56 PM,68.9,68.0,97,29.96,10.0,Calm,Calm,-,N/A,,Clear,0,2013-05-07 05:56:00
8:56 PM,66.9,66.9,100,29.97,10.0,NE,4.6,-,N/A,,Clear,50,2013-05-07 06:56:00
9:56 PM,65.8,64.9,97,29.98,10.0,ENE,5.8,-,N/A,,Clear,70,2013-05-07 07:56:00
10:56 PM,64.9,64.9,100,29.98,10.0,East,5.8,-,N/A,,Clear,80,2013-05-07 08:56:00
11:56 PM,64.9,64.9,100,29.97,10.0,ENE,3.5,-,N/A,,Clear,70,2013-05-07 09:56:00